Regional Weather Roundup
Issued by NWS Cleveland, OH

Home | Current Version | Previous Version | Graphics & Text | Print | Product List | Glossary On
Versions: 1 2 3 4 5 6 7 8 9 10 11 12 13 14 15 16 17 18 19 20 21 22 23 24 25 26 27 28 29 30 31 32 33 34 35 36 37 38 39 40 41 42 43 44 45 46 47 48 49 50
000
ASUS41 KCLE 181502
RWRCLE
OHIO REGIONAL WEATHER ROUNDUP
NATIONAL WEATHER SERVICE CLEVELAND, OH
1100 AM EDT FRI AUG 18 2017

NOTE: "FAIR" INDICATES FEW OR NO CLOUDS BELOW 12,000 FEET WITH NO
SIGNIFICANT WEATHER AND/OR OBSTRUCTIONS TO VISIBILITY.

OHZ001>008-015>018-024>027-034-035-043-044-181600-
   NORTHWEST OHIO

CITY           SKY/WX    TMP DP  RH WIND       PRES   REMARKS
DEFIANCE       PTSUNNY   74  63  68 W10G20    29.83R
FINDLAY        SUNNY     78  64  61 W17       29.83S
TOLEDO EXPRESS PTSUNNY   74  65  73 W17       29.80S
TOLEDO EXEC    MOSUNNY   77  65  66 W15G23    29.81R
LIMA           SUNNY     76  65  68 W17       29.86R
$$

OHZ009>014-019>023-028>033-038-089-181600-
   NORTHEAST OHIO

CITY           SKY/WX    TMP DP  RH WIND       PRES   REMARKS
CLE-HOPKINS    MOSUNNY   81  65  58 SW18      29.83R
CLE-LAKEFRONT  MOSUNNY   79  66  64 W9        29.80S
CUY CO. ARPT   NOT AVBL
LORAIN-ELYRIA  MOSUNNY   77  62  59 W15       29.82S
ASHTABULA      PTSUNNY   79  69  71 SW10G23   29.81S
AKRON-CANTON   PTSUNNY   82  64  54 W14       29.84S
WOOSTER        MOSUNNY   78  66  66 W13       29.85S
MANSFIELD      MOSUNNY   77  65  66 W13G22    29.86R
YOUNGSTOWN     PTSUNNY   77  67  71 W9        29.84S
$$

OHZ042-051>053-060>062-070>072-077>081-181600-
  SOUTHWEST OHIO

CITY           SKY/WX    TMP DP  RH WIND       PRES   REMARKS
CINC-COVINGTON MOSUNNY   79  71  76 W8        29.92R
CINC-LUNKEN    MOSUNNY   80  69  69 SW7       29.91R
HAMILTON       SUNNY     80  67  64 W10       29.91R
DAYTON         MOSUNNY   76  65  68 W9        29.91R
WRIGHT-PAT AFB MOSUNNY   79  68  69 SW12      29.88S
DAYTON GENERAL SUNNY     78  65  63 W9        29.90R
WILMINGTON     SUNNY     78  67  68 W10       29.90R
$$

OHZ036-037-039>041-045>050-054>059-063>069-073>076-082>088-181600-
  CENTRAL AND SOUTHEAST OHIO

CITY           SKY/WX    TMP DP  RH WIND       PRES   REMARKS
COLUMBUS       MOSUNNY   80  68  66 W14       29.87R
OSU AIRPORT    MOSUNNY   78  69  73 W9G17     29.87S
BOLTON FIELD   PTSUNNY   79  70  73 W8G16     29.88S
RICKENBACK AFB MOSUNNY   78  69  74 W13       29.87R
NEWARK         PTSUNNY   79  68  69 W12       29.87R
MARION         MOSUNNY   77  64  64 W15       29.86S
LANCASTER      PTSUNNY   78  70  76 W10       29.89R
ZANESVILLE     MOSUNNY   80  69  69 W13       29.87R
NEW PHILLY     NOT AVBL
$$




USA.gov is the U.S. government's official web portal to all federal, state and local government web resources and services.